Regional Weather Roundup
Issued by NWS Mobile, AL

Home | Current Version | Previous Version | Text Only | Print | Product List | Glossary On
Versions: 1 2 3 4 5 6 7 8 9 10 11 12 13 14 15 16 17 18 19 20 21 22 23 24 25 26 27 28 29 30 31 32 33 34 35 36 37 38 39 40 41 42 43 44 45 46 47 48 49 50
000
ASUS44 KMOB 041812
RWRMOB
REGIONAL WEATHER ROUNDUP
NATIONAL WEATHER SERVICE MOBILE AL
100 PM CDT WED MAY 04 2016

NOTE: "FAIR" INDICATES FEW OR NO CLOUDS BELOW 12,000 FEET WITH NO
      SIGNIFICANT WEATHER AND/OR OBSTRUCTIONS TO VISIBILITY.

  * THESE STATIONS ARE PART OF THE UNIVERSITY OF SOUTH ALABAMA
    MESONET AND ARE NOT UNDER NWS OR FAA QUALITY CONTROL.

ALZ061>064-041900-
COASTAL ALABAMA

CITY           SKY/WX    TMP DP  RH WIND       PRES   REMARKS
MOBILE REG APT CLOUDY    71  50  47 N10G17    29.90F
6HR MIN TEMP:  57; 6HR MAX TEMP:  72;

BROOKLEY FIELD MOSUNNY   71  50  47 N15G22    29.90F
6HR MIN TEMP:  60; 6HR MAX TEMP:  72;

USA CAMPUS*    NOT AVBL
DOG RIVER*     NOT AVBL


CITY           SKY/WX    TMP DP  RH WIND       PRES   REMARKS
MOUNT VERNON*  NOT AVBL
SARALAND*      NOT AVBL
BAY MINETTE*   NOT AVBL
LOXLEY*        NOT AVBL
ROBERTSDALE*   NOT AVBL
FAIRHOPE*      NOT AVBL
ELBERTA*       NOT AVBL
FOLEY*         NOT AVBL
GRAND BAY*     NOT AVBL
DAUPHIN ISLND* NOT AVBL
BON SCOUR NWR* NOT AVBL
GULF SHORES    MOSUNNY   72  50  46 NW10G22   29.87F

$$

ALZ051>060-041900-
INTERIOR SOUTHWEST AND SOUTH CENTRAL ALABAMA

CITY           SKY/WX    TMP DP  RH WIND       PRES   REMARKS
GREENVILLE     MOSUNNY   70  46  42 NW9       29.85F
6HR MIN TEMP:  57; 6HR MAX TEMP:  72;

EVERGREEN      MOSUNNY   72  47  40 VRB5G17   29.87F
6HR MIN TEMP:  56; 6HR MAX TEMP:  73;

CASTLEBERRY*   NOT AVBL
ATMORE*        NOT AVBL
DIXIE*         NOT AVBL
ANDALUSIA/OPP  MOSUNNY   76  48  37 NW13G18   29.85F
6HR MIN TEMP:  63; 6HR MAX TEMP:  77;

ANDALUSIA*     NOT AVBL
FLORALA APT    MOSUNNY   71  48  43 VRB7      29.86F
6HR MIN TEMP:  59; 6HR MAX TEMP:  72;

FLORALA*       NOT AVBL

$$

FLZ001>006-041900-
WESTERN FLORIDA PANHANDLE

CITY           SKY/WX    TMP DP  RH WIND       PRES   REMARKS
PENSACOLA      MOSUNNY   73  49  42 NW13      29.85F
6HR MIN TEMP:  62; 6HR MAX TEMP:  74;

NAS PENSACOLA  NOT AVBL
MILTON         MOSUNNY   73  54  51 NW14      29.86F
6HR MIN TEMP:  60; 6HR MAX TEMP:  73;

WHTNG S FIELD  NOT AVBL


CITY           SKY/WX    TMP DP  RH WIND       PRES   REMARKS
WALNUT HILL*   NOT AVBL
JAY*           NOT AVBL
DUKE FIELD     PTSUNNY   72  48  42 NW12      29.84F
CRESTVIEW      MOSUNNY   74  48  39 VRB7G20   29.86F
6HR MIN TEMP:  60; 6HR MAX TEMP:  75;

VALPARAISO     PTSUNNY   74  49  41 N12       29.83F
6HR MIN TEMP:  61; 6HR MAX TEMP:  74;

DESTIN         MOSUNNY   76  54  46 N14       29.83F
6HR MIN TEMP:  65; 6HR MAX TEMP:  77;


$$

MSZ076-079-041900-
INTERIOR SOUTHEAST MISSISSIPPI

CITY           SKY/WX    TMP DP  RH WIND       PRES   REMARKS
LEAKESVILLE*   NOT AVBL
AGRICOLA*      NOT AVBL

$$

MARINE OBSERVATIONS

STATION/POSITION TIME  TEMP    WIND        PRES    WAVE
                       AIR SEA DIR/SP/G            HT/PER
                 (UTC) (F)     (DEG/KT/KT) (MB)    (FT/S)
PASCAGOULA       1700   69     360/ 10/ 15 1012.9F
PETIT BOIS ISLND 1700   69     350/ 12/ 16 1013.8F
GRAND BAY        1600   68     360/ 14     1015.0S
KATRINA CUT      1700   68     350/ 14       N/A
CEDAR POINT      1700   68     350/ 15     1012.5F
E DAUPHIN ISLAND 1700   67     360/ 14/ 16 1012.6F
USCG MOBILE BAY  1700   69 74  350/ 13/ 16 1013.4F
STATE DOCKS      1700   73 73              1012.8F
MEAHER PARK      1700   68      10/  8     1012.5F
WEEKS BAY        1600   67                   N/A
FORT MORGAN      1700   67      20/ 16/ 22 1012.4F
12 S ORANGE BCH  1750   68 76  330/ 10/ 12 1010.7F   2/ 3
PENSACOLA BAY    1700   80 71  360/  9/ 14 1012.2F
64 S DAUPHIN ISL 1700   67 76  350/ 16/ 23 1012.5F

$$

SELECTED LOCATIONS ACROSS THE REGION

CITY           SKY/WX    TMP DP  RH WIND       PRES   REMARKS
NEW ORLEANS    MOSUNNY   75  50  41 N12G23    29.95F
GULFPORT       SUNNY     74  47  38 NW16      29.90F
PASCAGOULA AP  SUNNY     73  47  39 N12G22    29.90F
PASCAGOULA*    NOT AVBL
HATTIESBURG    SUNNY     73  45  36 NW10G23   29.92F
LAUREL         SUNNY     73  45  35 NW10G18   29.92F
MERIDIAN       MOSUNNY   73  46  38 NW7G18    29.89F
JACKSON        MOSUNNY   75  48  38 N13       29.91F
MONTGOMERY     MOSUNNY   72  46  39 N12       29.85F
TROY           PTSUNNY   70  48  45 NW13G20   29.85F
KINSTON*       NOT AVBL
GENEVA*        NOT AVBL
ASHFORD*       NOT AVBL
DOTHAN         MOSUNNY   73  46  38 NW16G23   29.85F
PANAMA CITY    MOSUNNY   75  51  43 NW14      29.79F

$$




USA.gov is the U.S. government's official web portal to all federal, state and local government web resources and services.